Weather History for KRIL - February, 2012

Change the Weather History Date:

Friday, February 24, 2012

  Actual Average Record
Temperature  
Mean Temperature 28 °F 34 °F  
Max Temperature 41 °F 46 °F 67 °F (1981)
Min Temperature 14 °F 22 °F -10 °F (1955)
Degree Days  
Heating Degree Days 37 31  
Month to date heating degree days 790 840  
Since 1 July heating degree days 4602 4875  
Cooling Degree Days 0 0  
Month to date cooling degree days 0  
Year to date cooling degree days 0  
Moisture  
Dew Point 10 °F    
Average Humidity 57    
Maximum Humidity 88    
Minimum Humidity 25    
Precipitation  
Precipitation 0.00 in 0.03 in 0.64 in (1993)
Month to date precipitation 0.37 0.64  
Year to date precipitation 0.94 1.45  
Sea Level Pressure  
Sea Level Pressure 30.37 in    
Wind  
Wind Speed 2 mph (South)    
Max Wind Speed 8 mph    
Max Gust Speed 14 mph    
Visibility 10 miles    
Events      
T = Trace of Precipitation, MM = Missing Value Source: NWS Daily Summary

Daily Weather History Graph

Daily Weather History Graph

Search for Another Location

Airport or City:

Trip Planner

Search our weather history database for the weather conditions in past years. The results will help you decide how hot, cold, wet, or windy it might be!

Date:

Astronomy

Feb. 24, 2012 Rise Set
Actual Time 6:51 AM MST 5:57 PM MST
Civil Twilight 6:24 AM MST 6:24 PM MST
Nautical Twilight 5:53 AM MST 6:55 PM MST
Astronomical Twilight 5:22 AM MST 7:26 PM MST
Moon 7:48 AM MST (2/24) 9:02 PM MST (2/24)
Length of Visible Light 11h 59m
Length of Day
11h 05m
Waxing Crescent, 8% of the Moon is Illuminated
Feb 24
Waxing Crescent
Feb 29
First Quarter
Mar 8
Full
Mar 14
Last Quarter
Mar 22
New

Hourly Weather History & Observations

Time (MST) Temp. Windchill Dew Point Humidity Pressure Visibility Wind Dir Wind Speed Gust Speed Precip Events Conditions
12:53 AM 19.0 °F - 9.0 °F 65% 30.29 in 10.0 mi Calm Calm - N/A   Clear
1:53 AM 17.1 °F - 10.0 °F 74% 30.30 in 10.0 mi Calm Calm - N/A   Clear
2:53 AM 17.1 °F 11.7 °F 7.0 °F 65% 30.31 in 10.0 mi SE 3.5 mph - N/A   Clear
3:53 AM 16.0 °F 8.8 °F 10.9 °F 81% 30.32 in 10.0 mi WSW 4.6 mph - N/A   Clear
4:53 AM 14.0 °F - 10.0 °F 84% 30.36 in 10.0 mi Calm Calm - N/A   Clear
5:53 AM 14.0 °F - 8.1 °F 77% 30.40 in 10.0 mi Calm Calm - N/A   Clear
6:53 AM 15.1 °F - 8.1 °F 74% 30.44 in 10.0 mi Calm Calm - N/A   Clear
7:53 AM 16.0 °F - 10.0 °F 77% 30.50 in 10.0 mi Calm Calm - N/A   Clear
8:53 AM 19.9 °F - 9.0 °F 62% 30.51 in 10.0 mi Calm Calm - N/A   Clear
9:53 AM 24.1 °F - 10.0 °F 55% 30.48 in 10.0 mi Calm Calm - N/A   Clear
10:53 AM 28.9 °F 25.2 °F 6.1 °F 38% 30.46 in 10.0 mi ENE 3.5 mph - N/A   Clear
11:53 AM 32.0 °F - 7.0 °F 35% 30.43 in 10.0 mi Calm Calm - N/A   Clear
12:53 PM 36.0 °F 32.1 °F 7.0 °F 30% 30.38 in 10.0 mi Variable 4.6 mph - N/A   Clear
1:53 PM 37.9 °F 34.4 °F 6.1 °F 27% 30.36 in 10.0 mi Variable 4.6 mph - N/A   Clear
2:53 PM 39.0 °F - 7.0 °F 27% 30.35 in 10.0 mi Calm Calm - N/A   Clear
3:53 PM 39.9 °F - 6.1 °F 25% 30.33 in 10.0 mi Calm Calm - N/A   Clear
4:53 PM 39.9 °F - 6.1 °F 25% 30.32 in 10.0 mi Calm Calm - N/A   Clear
5:53 PM 35.1 °F 31.0 °F 10.0 °F 35% 30.33 in 10.0 mi SSW 4.6 mph - N/A   Clear
6:53 PM 30.0 °F 25.2 °F 14.0 °F 51% 30.36 in 10.0 mi SW 4.6 mph - N/A   Clear
7:53 PM 28.0 °F - 17.1 °F 63% 30.37 in 10.0 mi Calm Calm - N/A   Clear
8:53 PM 27.0 °F 23.0 °F 17.1 °F 66% 30.35 in 10.0 mi ESE 3.5 mph - N/A   Clear
9:53 PM 25.0 °F - 16.0 °F 69% 30.34 in 10.0 mi Calm Calm - N/A   Clear
10:53 PM 23.0 °F 18.4 °F 15.1 °F 72% 30.33 in 10.0 mi SSW 3.5 mph - N/A   Clear
11:53 PM 21.9 °F - 12.9 °F 68% 30.30 in 10.0 mi Calm Calm - N/A   Clear